Location: Coll
(42.4728°N, 0.7714°E)
Time: 06:31:50
(UTC+00:00)

CZ-2C R/B - Pass Details

Date: 23 October 2020
Orbit: 667 x 785 km, 98.2° (Epoch: 23 November)

Event Time Altitude Azimuth Distance (km) Brightness Sun altitude
Rises 03:07:50 0° 23° (NNE) 3,231 6.2 -35.7°
Reaches altitude 10° 03:10:28 10° 35° (NE) 2,283 5.5 -35.2°
Maximum altitude 03:14:49 29° 95° (E) 1,329 4.1 -34.5°
Enters shadow 03:15:15 29° 104° (ESE) 1,339 4.1 -34.4°
